Content
SEND FEEDBACK

Daily
Averages
Monthly
Summary
United States of America

NEW YORK - CENTRAL PARK, NEW YORK


Home > North America > United States > New York
Elevation: 4 meters     Latitude: 40 47N     Longitude: 073 58W

WEATHER
 
SELECT A DAY
Number of Records: 148,328;   Date Range: 11/1/95 - 9/18/14
 
SHARE

PRINT THIS DATA

[ ← Previous Day ]
WEATHER ALMANAC - 6 JULY, 2013
[ Next Day → ]
[ °F ]   °C
Weather ElementAverageHighLow
Temperature29.6 °C32.8 °C (2:51 pm)25.6 °C (4:51 am)
Dewpoint21.2 °C22.2 °C (5:51 am)19.4 °C (4:51 pm)
Humidity61.9 %81 % (5:51 am)45 % (4:51 pm)
Barometer1019 hPa1020.7 hPa (6:51 am)1016.9 hPa (7:51 pm)
Wind Speed6.9 km/h13 km/h (5:51 pm)
Wind Gust31.5 km/h (4:51 pm)
Weather ElementAverage
Visibility15.8 km
Wind DirectionNE (48.3 °)

Weather ElementTotal
Precipitation---
Cooling Degree Days10.9 (Base 18.3)
Growing Degree Days19.2 (Base 10)
Averaged from 23 records on 6 July, 2013
WEATHER CONDITIONS BREAKOUT
WIND DIRECTION BREAKOUT
WEATHER BY HOUR - 6 JULY, 2013
[ °F ]   °C
Local TimeTemperatureDewpointHumidityBarometerVisibilityWind DirectionWind SpeedGust SpeedPrecipitationEventsConditions
1:51 AM27.2 °C21.7 °C72 %1020.3 hPa16.1 kmNorthClear
2:51 AM26.7 °C21.7 °C74 %1020.3 hPa16.1 kmVariable5.6 km/hClear
3:51 AM26.7 °C21.7 °C74 %1020.3 hPa16.1 kmVariable5.6 km/h27.8 km/hClear
4:51 AM25.6 °C21.7 °C79 %1020.3 hPa16.1 kmVariable5.6 km/hClear
5:51 AM25.6 °C22.2 °C81 %1020.3 hPa14.5 kmWest (270°)11.1 km/hClear
6:51 AM25.6 °C22.2 °C81 %1020.7 hPa14.5 kmVariable11.1 km/hClear
7:51 AM26.1 °C22.2 °C79 %1020.7 hPa14.5 kmVariable5.6 km/hClear
8:51 AM27.2 °C22.2 °C74 %1020.7 hPa14.5 kmVariable5.6 km/hClear
9:51 AM28.9 °C22.2 °C67 %1020.3 hPa14.5 kmCalmClear
10:51 AM29.4 °C22.2 °C65 %1020 hPa16.1 kmVariable5.6 km/hClear
11:51 AM31.7 °C21.1 °C53 %1019.6 hPa16.1 kmCalmClear
12:51 PM32.2 °C21.7 °C54 %1019.3 hPa16.1 kmVariable11.1 km/hPartly Cloudy
1:51 PM32.2 °C21.7 °C54 %1019 hPa16.1 kmVariable5.6 km/h27.8 km/hScattered Clouds
2:51 PM32.8 °C20.6 °C48 %1018.6 hPa16.1 kmVariable5.6 km/hScattered Clouds
3:51 PM32.2 °C21.1 °C52 %1017.9 hPa16.1 kmVariable7.4 km/hClear
4:51 PM32.8 °C19.4 °C45 %1017.6 hPa16.1 kmVariable11.1 km/h31.5 km/hClear
5:51 PM31.7 °C20.6 °C52 %1017.3 hPa16.1 kmWNW (290°)13 km/hClear
6:51 PM31.7 °C20 °C50 %1017.3 hPa16.1 kmWest (280°)13 km/hClear
7:51 PM31.7 °C20 °C50 %1016.9 hPa16.1 kmVariable9.3 km/hClear
8:51 PM31.1 °C20 °C51 %1016.9 hPa16.1 kmWest (270°)7.4 km/hClear
9:51 PM30.6 °C20 °C53 %1017.6 hPa16.1 kmCalmClear
10:51 PM30 °C20 °C55 %1017.9 hPa16.1 kmCalmClear
11:51 PM29.4 °C21.1 °C61 %1017.9 hPa16.1 kmVariable11.1 km/hClear
Hourly data recorded from KNYC, located 0 kilometers away from New York - Central Park, New York







STORIES FROM OUR PARTNERS